Location: Newark
(47.1667°N, 6.4167°E)
Time: 17:55:16
(UTC+00:00)

ISS - Visible Passes

Search period start: 15 May 2021 00:00
Search period end: 25 May 2021 00:00
Orbit: 417 x 422 km, 51.6° (Epoch: 15 May)

Date Brightness Start Highest point End Pass type
(mag) Time Alt. Az. Time Alt. Az. Time Alt. Az.
15 May -2.2 00:04:06 10° WNW 00:07:16 37° N 00:10:27 10° ENE visible
15 May -3.7 01:41:00 10° WNW 01:44:23 78° NNE 01:47:46 10° ESE visible
15 May -2.4 03:18:15 10° W 03:20:55 21° SW 03:23:33 10° S visible
15 May -2.7 20:03:08 10° SSW 20:05:57 25° SE 20:08:47 10° E visible
15 May -3.5 21:39:12 10° WSW 21:42:33 68° NNW 21:45:55 10° ENE visible
15 May -2.2 23:16:32 10° WNW 23:19:42 36° N 23:22:52 10° ENE visible
16 May -3.2 00:53:33 10° WNW 00:56:54 58° NNE 01:00:14 10° E visible
16 May -3.1 02:30:32 10° WNW 02:33:36 32° SW 02:36:39 10° SSE visible
16 May -3.9 20:51:43 10° WSW 20:55:04 87° SSE 20:58:28 10° ENE visible
16 May -2.3 22:28:56 10° WNW 22:32:08 38° N 22:35:20 10° ENE visible
17 May -2.7 00:06:05 10° WNW 00:09:22 46° NNE 00:12:39 10° E visible
17 May -3.6 01:42:57 10° WNW 01:46:14 49° SSW 01:49:30 10° SE visible
17 May -3.7 20:04:20 10° SW 20:07:39 59° SSE 20:10:59 10° ENE visible
17 May -2.5 21:41:20 10° W 21:44:34 43° N 21:47:49 10° ENE visible
17 May -2.4 23:18:36 10° WNW 23:21:49 40° N 23:22:53 30° NE visible
18 May -1.1 00:55:26 10° WNW 00:55:46 12° WNW 00:55:46 12° WNW visible
18 May -2.9 20:53:43 10° W 20:57:01 52° NNW 21:00:20 10° ENE visible
18 May -2.2 22:31:04 10° WNW 22:34:15 37° N 22:36:27 17° ENE visible
19 May -1.8 00:07:59 10° WNW 00:09:22 23° WNW 00:09:22 23° WNW visible
19 May -3.4 20:06:10 10° WSW 20:09:31 68° NNW 20:12:52 10° ENE visible
19 May -2.2 21:43:30 10° WNW 21:46:39 36° N 21:49:49 10° ENE visible
19 May -2.8 23:20:30 10° WNW 23:23:11 46° NNW 23:23:11 46° NNW visible
20 May -2.3 20:55:53 10° WNW 20:59:04 38° N 21:02:16 10° ENE visible
20 May -2.8 22:33:02 10° WNW 22:36:18 46° NNE 22:37:05 38° NE visible
21 May -0.9 00:09:53 10° WNW 00:10:01 11° WNW 00:10:01 11° WNW visible
21 May -2.5 20:08:15 10° W 20:11:29 43° NNW 20:14:45 10° ENE visible
21 May -2.5 21:45:32 10° WNW 21:48:44 40° N 21:51:01 17° ENE visible
21 May -2.0 23:22:22 10° WNW 23:23:57 25° WNW 23:23:57 25° WNW visible
22 May -2.3 20:57:58 10° WNW 21:01:09 37° N 21:04:19 10° ENE visible
22 May -3.5 22:34:53 10° WNW 22:37:56 68° NW 22:37:56 68° NW visible
23 May -2.2 20:10:23 10° WNW 20:13:32 36° N 20:16:43 10° ENE visible
23 May -3.3 21:47:24 10° WNW 21:50:44 58° NNE 21:51:56 34° E visible
23 May -1.1 23:24:23 10° WNW 23:24:52 13° W 23:24:52 13° W visible
24 May -2.8 20:59:54 10° WNW 21:03:11 46° NNE 21:05:58 13° E visible
24 May -2.5 22:36:46 10° WNW 22:38:54 33° W 22:38:54 33° W visible
